Погода в Новом Акшине

Россия / Республика Мордовия     54°18′07″N   44°46′51″E
темп.,
°C
ветер,
м/с
пор.,
м/с
влажн.,
%
обл.,
%
осадки,
мм/ч
давл.,
гПа
погр.,
м
26 июля, пн
пн2600:00+14з22675 0.0 102323
03:00+12з22735 0.0 102312
06:00+14зюз227089 0.0 102483
09:00+19з345475 0.0 1024591
12:00+21з45487 0.0 1024970
15:00+22з454464 0.0 10221787
18:00+21зсз125960 0.0 1022105
21:00+18зюз33626 0.0 102232
27 июля, вт
вт2700:00+16зюз336399 0.0 102244
03:00+16з346069 0.0 102279
06:00+16з366743 0.0 1022134
09:00+22зсз465389 0.0 1021489
12:00+22з47575 0.0 1021569
15:00+20з596797 0.2 1020259
18:00+24с255889 0.1 1018390
21:00+17ссв11727 0.1 101911
28 июля, ср
ср2800:00+16ссв12745 0.0 102011
03:00+15ююз00726 0.0 101911
06:00+17ю116815 0.0 101935
09:00+22ю335210 0.0 1018546
12:00+26зюз45465 0.0 10171518
15:00+26зюз364962 0.0 1016838
18:00+24зюз4857100 0.0 1015266
21:00+20юз236471 0.1 101429
29 июля, чт
чт2900:00+19ююз4106245 0.0 1012182
03:00+17юз3781100 0.5 1012150
06:00+16ю3991100 1.5 1010242
09:00+20юз6978100 1.7 1008598
12:00+24з8116380 0.1 10071461
15:00+28з7124731 0.1 10062500
18:00+24зюз613555 0.0 1006456
21:00+20зюз4967100 0.0 1006147
30 июля, пт
пт3000:00+20з4106568 0.0 1007218
03:00+18з34745 0.0 100753
06:00+19зюз357410 0.0 1008116
09:00+24зюз4658100 0.0 1008518
12:00+28зюз5649100 0.0 10081701
15:00+28зюз785092 0.0 10071497
18:00+24зюз376613 0.0 1007534
21:00+20зюз34810 0.0 100860